Volk, WI

1:16 AM CST on December 17, 2017 (GMT -0600)
Volk

Weather History for KVOK - December, 2011

Change the Weather History Date:

Saturday, December 17, 2011

  Actual Average Record
Temperature  
Mean Temperature 19 °F -  
Max Temperature 28 °F 26 °F 44 °F (1997)
Min Temperature 10 °F 14 °F -7 °F (2008)
Degree Days  
Heating Degree Days 46    
Moisture  
Dew Point 21 °F    
Average Humidity 98    
Maximum Humidity 100    
Minimum Humidity 92    
Precipitation  
Precipitation 0.00 in - - ()
Sea Level Pressure  
Sea Level Pressure 30.27 in    
Wind  
Wind Speed 2 mph (SSW)    
Max Wind Speed 12 mph    
Max Gust Speed -    
Visibility 7 miles    
Events Snow    
Averages and records for this station are not official NWS values.
T = Trace of Precipitation, MM = Missing Value Source: NWS Daily Summary

Daily Weather History Graph

Daily Weather History Graph

Search for Another Location

Airport or City:

Trip Planner

Search our weather history database for the weather conditions in past years. The results will help you decide how hot, cold, wet, or windy it might be!

Date:

Astronomy

Dec. 17, 2011 Rise Set
Actual Time 7:29 AM CST 4:24 PM CST
Civil Twilight 6:56 AM CST 4:57 PM CST
Nautical Twilight 6:20 AM CST 5:33 PM CST
Astronomical Twilight 5:45 AM CST 6:09 PM CST
Moon No Moon Rise 11:31 AM CST
Length of Visible Light 10h 00m
Length of Day
8h 54m
Waning Gibbous, 53% of the Moon is Illuminated
Dec 17
Waning Gibbous
Dec 17
Last Quarter
Dec 24
New
Jan 1
First Quarter
Jan 9
Full

Hourly Weather History & Observations

Time (CST) Temp. Windchill Dew Point Humidity Pressure Visibility Wind Dir Wind Speed Gust Speed Precip Events Conditions
12:16 AM 21.2 °F - 19.4 °F 93% 30.37 in 8.0 mi Calm Calm - N/A Snow Light Snow
12:25 AM 21.2 °F - 19.4 °F 93% 30.37 in 4.0 mi Calm Calm - N/A Snow Light Snow
12:30 AM 21.2 °F - 21.2 °F 100% 30.36 in 2.5 mi Calm Calm - N/A Snow Light Snow
12:35 AM 21.2 °F - 21.2 °F 100% 30.36 in 2.0 mi Calm Calm - N/A Snow Light Snow
12:42 AM 21.2 °F - 21.2 °F 100% 30.36 in 1.8 mi Calm Calm - N/A Snow Light Snow
12:46 AM 21.2 °F - 21.2 °F 100% 30.36 in 2.0 mi Calm Calm - N/A Snow Light Snow
12:55 AM 21.2 °F - 21.0 °F 99% 30.36 in 2.0 mi Calm Calm - 0.00 in Snow Light Snow
1:01 AM 21.2 °F - 21.2 °F 100% 30.36 in 2.5 mi Calm Calm - N/A Snow Light Snow
1:10 AM 21.2 °F - 21.2 °F 100% 30.36 in 2.0 mi Calm Calm - N/A Snow Light Snow
1:19 AM 21.2 °F - 21.2 °F 100% 30.35 in 2.0 mi Calm Calm - N/A Snow Light Snow
1:28 AM 21.2 °F - 21.2 °F 100% 30.35 in 2.0 mi Calm Calm - N/A Snow Light Snow
1:34 AM 21.2 °F - 21.2 °F 100% 30.34 in 2.5 mi Calm Calm - N/A Snow Light Snow
1:44 AM 21.2 °F - 21.2 °F 100% 30.34 in 3.0 mi Calm Calm - N/A Snow Light Snow
1:55 AM 21.2 °F 16.4 °F 21.0 °F 99% 30.34 in 4.0 mi East 3.5 mph - 0.00 in Snow Light Snow
1:57 AM 21.2 °F 16.4 °F 21.2 °F 100% 30.34 in 4.0 mi East 3.5 mph - N/A Snow Light Snow
2:30 AM 21.2 °F - 21.2 °F 100% 30.33 in 4.0 mi Calm Calm - N/A Snow Light Snow
2:31 AM 21.2 °F - 21.2 °F 100% 30.33 in 4.0 mi Calm Calm - N/A Snow Light Snow
2:33 AM 21.2 °F - 21.2 °F 100% 30.33 in 3.0 mi Calm Calm - N/A Snow Light Snow
2:39 AM 21.2 °F - 21.2 °F 100% 30.33 in 4.0 mi Calm Calm - N/A Snow Light Snow
2:42 AM 21.2 °F 16.4 °F 21.2 °F 100% 30.33 in 4.0 mi ESE 3.5 mph - N/A Snow Light Snow
2:55 AM 21.2 °F - 21.0 °F 99% 30.33 in 8.0 mi Calm Calm - 0.00 in Snow Light Snow
3:15 AM 21.2 °F - 21.2 °F 100% 30.33 in 5.0 mi Calm Calm - N/A Snow Light Snow
3:16 AM 21.2 °F - 21.2 °F 100% 30.33 in 5.0 mi Calm Calm - N/A Snow Light Snow
3:17 AM 21.2 °F - 21.2 °F 100% 30.33 in 5.0 mi Calm Calm - N/A Snow Light Snow
3:46 AM 21.2 °F - 21.2 °F 100% 30.32 in 5.0 mi Calm Calm - N/A Snow Light Snow
3:55 AM 20.7 °F - 20.5 °F 99% 30.31 in 5.0 mi Calm Calm - 0.00 in Snow Light Snow
4:16 AM 21.2 °F - 21.2 °F 100% 30.31 in 6.0 mi Calm Calm - N/A Snow Light Snow
4:36 AM 19.4 °F - 19.4 °F 100% 30.31 in 8.0 mi Calm Calm - N/A Snow Light Snow
4:46 AM 19.4 °F 14.3 °F 19.4 °F 100% 30.30 in 8.0 mi SSE 3.5 mph - N/A Snow Light Snow
4:47 AM 19.4 °F 14.3 °F 19.4 °F 100% 30.30 in 8.0 mi SSE 3.5 mph - N/A   Overcast
4:48 AM 19.4 °F 12.8 °F 19.4 °F 100% 30.30 in 8.0 mi SSE 4.6 mph - N/A   Overcast
4:55 AM 20.1 °F 15.2 °F 19.9 °F 99% 30.30 in 7.0 mi SE 3.5 mph - 0.00 in   Overcast
5:00 AM 19.4 °F 14.3 °F 19.4 °F 100% 30.30 in 8.0 mi SSE 3.5 mph - N/A   Overcast
5:13 AM 19.4 °F 14.3 °F 19.4 °F 100% 30.30 in 10.0 mi SE 3.5 mph - N/A   Mostly Cloudy
5:55 AM 15.8 °F 10.2 °F 15.6 °F 99% 30.30 in 10.0 mi SSE 3.5 mph - N/A   Mostly Cloudy
6:36 AM 14.0 °F 6.5 °F 14.0 °F 100% 30.29 in 10.0 mi East 4.6 mph - N/A Snow Light Snow
6:55 AM 12.0 °F 5.9 °F 11.8 °F 99% 30.29 in 9.0 mi East 3.5 mph - 0.00 in Snow Light Snow
7:03 AM 12.2 °F 6.1 °F 12.2 °F 100% 30.28 in 10.0 mi East 3.5 mph - N/A   Overcast
7:09 AM 12.2 °F 6.1 °F 12.2 °F 100% 30.28 in 9.0 mi East 3.5 mph - N/A   Overcast
7:28 AM 10.4 °F 4.0 °F 10.4 °F 100% 30.28 in 4.0 mi ESE 3.5 mph - N/A   Scattered Clouds
7:36 AM 10.4 °F - 8.6 °F 92% 30.28 in 9.0 mi Calm Calm - N/A   Partly Cloudy
7:55 AM 12.4 °F - 12.2 °F 99% 30.27 in 7.0 mi Calm Calm - 0.00 in   Clear
8:18 AM 12.2 °F - 12.2 °F 100% 30.27 in 10.0 mi Calm Calm - N/A   Mostly Cloudy
8:55 AM 17.4 °F - 17.1 °F 98% 30.26 in 10.0 mi Calm Calm - N/A   Mostly Cloudy
8:57 AM 17.6 °F - 17.6 °F 100% 30.26 in 10.0 mi Calm Calm - N/A   Scattered Clouds
9:32 AM 21.2 °F - 21.2 °F 100% 30.26 in 10.0 mi Calm Calm - N/A   Mostly Cloudy
9:55 AM 22.5 °F 16.3 °F 22.5 °F 100% 30.27 in 10.0 mi SSW 4.6 mph - N/A   Overcast
10:55 AM 24.8 °F - 24.6 °F 99% 30.25 in 10.0 mi Calm Calm - N/A   Mostly Cloudy
11:55 AM 27.9 °F 20.6 °F 26.2 °F 94% 30.22 in 10.0 mi WSW 6.9 mph - N/A   Overcast
12:55 PM 27.9 °F 19.8 °F 27.0 °F 96% 30.19 in 10.0 mi WSW 8.1 mph - N/A   Overcast
1:55 PM 28.0 °F 18.1 °F 26.8 °F 95% 30.14 in 10.0 mi SSW 11.5 mph - N/A   Overcast
2:06 PM 28.4 °F 18.5 °F 26.6 °F 93% 30.16 in 10.0 mi WSW 11.5 mph - N/A   Overcast
2:12 PM 28.4 °F 19.1 °F 26.6 °F 93% 30.16 in 10.0 mi WSW 10.4 mph - N/A   Overcast
2:13 PM 28.4 °F 19.1 °F 26.6 °F 93% 30.16 in 10.0 mi WSW 10.4 mph - N/A   Overcast
2:21 PM 28.4 °F 19.1 °F 26.6 °F 93% 30.16 in 10.0 mi WSW 10.4 mph - N/A   Overcast
2:55 PM 28.8 °F 20.9 °F 27.3 °F 94% 30.15 in 10.0 mi WSW 8.1 mph - N/A   Overcast
3:55 PM 28.4 °F 18.5 °F 26.8 °F 94% 30.15 in 10.0 mi WSW 11.5 mph - N/A   Overcast
4:55 PM 28.6 °F 23.5 °F 27.5 °F 96% 30.15 in 10.0 mi WSW 4.6 mph - N/A   Overcast
5:55 PM 28.9 °F 22.8 °F 28.2 °F 97% 30.15 in 10.0 mi WSW 5.8 mph - N/A   Overcast
6:55 PM 28.6 °F 19.9 °F 27.3 °F 95% 30.15 in 10.0 mi West 9.2 mph - N/A   Mostly Cloudy
7:25 PM 26.6 °F 19.1 °F 26.6 °F 100% 30.17 in 10.0 mi West 6.9 mph - N/A   Scattered Clouds
7:55 PM 24.1 °F 18.2 °F 23.9 °F 99% 30.17 in 10.0 mi WNW 4.6 mph - N/A   Scattered Clouds
8:55 PM 22.6 °F 16.5 °F 22.5 °F 99% 30.17 in 10.0 mi West 4.6 mph - N/A   Clear
9:55 PM 21.6 °F 13.0 °F 21.4 °F 99% 30.16 in 10.0 mi WNW 6.9 mph - N/A   Clear
10:55 PM 21.2 °F 12.6 °F 21.0 °F 99% 30.16 in 10.0 mi West 6.9 mph - N/A   Clear
11:55 PM 22.5 °F 15.1 °F 22.3 °F 99% 30.18 in 10.0 mi West 5.8 mph - N/A   Clear